Regional Weather Roundup
Issued by NWS

Home | Current Version | Previous Version | Graphics & Text | Print | Product List | Glossary On
Versions: 1 2 3 4 5 6 7 8 9 10 11 12 13 14 15 16 17 18 19 20 21 22 23 24 25 26 27 28 29 30 31 32 33 34 35 36 37 38 39 40 41 42 43 44 45 46 47 48 49 50
000
ASUS45 KPSR 180710
RWRAZ

ARIZONA REGIONAL HOURLY WEATHER ROUNDUP
NATIONAL WEATHER SERVICE PHOENIX AZ
1200 AM MST SAT APR 18 2015

NOTE: FAIR INDICATES FEW OR NO CLOUDS BELOW 12,000 FEET WITH NO
SIGNIFICANT WEATHER AND/OR OBSTRUCTIONS TO VISIBILITY.

AZZ001>003-036-180800-
NORTHWEST ARIZONA

CITY           SKY/WX    TMP DP  RH WIND       PRES   REMARKS
BULLHEAD CITY  CLEAR     66  19  16 SE6       29.92S
KINGMAN        CLEAR     44  19  36 CALM      30.02S
$$

AZZ004>008-015-016-018-180800-
NORTH CENTRAL ARIZONA

CITY           SKY/WX    TMP DP  RH WIND       PRES   REMARKS
GRAND CANYON   CLEAR     27  23  85 CALM      30.11F
WILLIAMS       CLEAR     32  25  74 S5        30.19S WCI  27
PRESCOTT       CLEAR     44  24  45 S6        30.08F
FLAGSTAFF      CLEAR     31  24  75 CALM      30.12F
PAYSON         CLEAR     46  21  36 CALM      30.09F
PAGE           MOCLDY    53  34  48 CALM      30.02S
$$

AZZ009>014-017-180800-
NORTHEAST ARIZONA

CITY           SKY/WX    TMP DP  RH WIND       PRES   REMARKS
WINSLOW        CLEAR     45  27  49 SW10      30.04F
SAINT JOHNS    CLEAR     41  23  48 SW9       30.05F
WINDOW ROCK    MOCLDY    35  28  75 CALM      30.04F
SHOW LOW       PTCLDY    37  18  44 S6        30.11F WCI  33
$$

AZZ023-180800-
GREATER PHOENIX AREA

CITY           SKY/WX    TMP DP  RH WIND       PRES   REMARKS
PHOENIX        CLEAR     70  21  15 E6        29.93S
BUCKEYE        CLEAR     59  19  21 N7        29.95S
LUKE AFB       CLEAR     64  32  30 N5        29.93R
DEER VALLEY    CLEAR     66  22  18 E7        29.95S
SCOTTSDALE     CLEAR     67  21  17 CALM      29.97S
MESA-GATEWAY   CLEAR     59  23  25 SE10      29.98S
$$

AZZ027-028-180800-
SOUTHWEST MARICOPA COUNTY AND PINAL COUNTY

CITY           SKY/WX    TMP DP  RH WIND       PRES   REMARKS
CASA GRANDE    CLEAR     61  19  20 CALM      29.97S
GILA BEND      FAIR      63  17  17 S8        29.95R
$$

AZZ503-504-507>509-180800-
SOUTHEAST ARIZONA

CITY           SKY/WX    TMP DP  RH WIND       PRES   REMARKS
TUCSON         CLEAR     54  17  23 SE6       30.05S
DAVIS-MONTHAN  CLEAR     51  16  24 SE7       30.03S
NOGALES        CLEAR     47  19  33 CALM      30.08R
SIERRA VISTA   CLEAR     50  16  26 W9        30.10S
DOUGLAS        CLEAR     46  17  31 N10       30.07S
SAFFORD        CLEAR     55  15  20 NW10      30.02R
$$

AZZ020-021-025-026-031-180800-
SOUTHWEST ARIZONA

CITY           SKY/WX    TMP DP  RH WIND       PRES   REMARKS
YUMA           CLEAR     66  34  30 S5        29.95S
$$

CAZ031-033-041-043-047-048-061-180800-
SOUTHERN CALIFORNIA

CITY           SKY/WX    TMP DP  RH WIND       PRES   REMARKS
DOWNTOWN L.A.  CLEAR     63  44  50 CALM      30.01R
L.A. AIRPORT   CLEAR     61  49  64 SW9       30.02R
SAN DIEGO      PTCLDY    65  44  46 CALM      30.05R
BURBANK        CLEAR     63  24  22 CALM      30.02R
ONTARIO        CLEAR     63  31  30 CALM      30.04R
RIVERSIDE      CLEAR     62  28  27 N5        30.04S
PALM SPRINGS   CLEAR     71  27  19 SW5       29.97S
EL CENTRO NAS  CLEAR     68  26  20 S9        29.94S
IMPERIAL       CLEAR     68  28  22 S7        29.93S
BLYTHE         CLEAR     72  22  15 SW9       29.93S
NEEDLES        CLEAR     71  12  10 CALM      29.93R
$$

NVZ020-UTZ003-180800-
SOUTHERN NEVADA-UTAH

CITY           SKY/WX    TMP DP  RH WIND       PRES   REMARKS
LAS VEGAS      CLEAR     68  15  13 S9        29.90S
SALT LAKE CITY PTCLDY    49  37  63 SW8       30.03F
$$

NMZ009-TXZ055-180800-
NEW MEXICO-WEST TEXAS

CITY           SKY/WX    TMP DP  RH WIND       PRES   REMARKS
ALBUQUERQUE    MOCLDY    43  29  57 N7        30.05S
EL PASO        PTCLDY    56  11  16 SE7       30.00S
$$


........................KEY........................
SKY/WX - SKY CONDITION/WEATHER
TMP    - TEMPERATURE IN FAHRENHEIT
DP     - DEW POINT IN FAHRENHEIT
RH     - RELATIVE HUMIDITY IN PERCENT
WIND   - DIRECTION AND SPEED IN MILES PER HOUR (MPH)
VRB    - VARIABLE WIND DIRECTION
PRES   - MEAN SEA LEVEL PRESSURE IN INCHES OF MERCURY
         F - FALLING PRESSURE   R - RISING PRESSURE
         S - STEADY PRESSURE
VSB    - VISIBILITY IN MILES
HX     - HEAT INDEX IN FAHRENHEIT
WCI    - WIND CHILL INDEX IN FAHRENHEIT
TC     - TEMPERATURE IN CELSIUS WHICH IS ALSO KNOWN AS
         TEMPERATURE IN CENTIGRADE
AFB    - AIR FORCE BASE
         LUKE AFB IS LUKE AIR FORCE BASE
         DAVIS-MONTHAN IS DAVIS-MONTHAN AIR FORCE BASE
NAS    - NAVAL AIR STATION
         EL CENTRO NAS IS EL CENTRO NAVAL AIR STATION
N/A    - NOT AVAILABLE




USA.gov is the U.S. government's official web portal to all federal, state and local government web resources and services.